QPF
0.01 0.03 0.03 0.03 0.03 0.04 0.08 0.06 0.03 0.06 0.11 0.10 0.06 0.02 0.02 0.03 0.02 0.00 0.00 0.00 0.00 0.00 0.00 0.00 0.00 0.00 0.00 0.00 0.00 0.00 0.00 0.00 0.01 0.01 0.01 0.01 0.01 0.01 0.01 0.00 0.00 0.00 0.01 0.01
0.03 0.02 0.01 0.03 0.03 0.05 0.04 0.03 0.06 0.07 0.06 0.05 0.04 0.02 0.02 0.02 0.02 0.01 0.00 0.00 0.00 0.00 0.00 0.00 0.00 0.00 0.00 0.00 0.00 0.00 0.00 0.00 0.01 0.01 0.01 0.01 0.02 0.01 0.01 0.01 0.00 0.00 0.02 0.02
0.01 0.01 0.01 0.03 0.06 0.05 0.04 0.02 0.06 0.06 0.03 0.01 0.01 0.01 0.01 0.01 0.02 0.01 0.01 0.00 0.00 0.00 0.00 0.00 0.00 0.00 0.00 0.00 0.00 0.00 0.00 0.00 0.01 0.00 0.01 0.01 0.01 0.01 0.01 0.01 0.00 0.00 0.01 0.02
0.01 0.01 0.01 0.02 0.05 0.04 0.03 0.02 0.02 0.02 0.02 0.03 0.01 0.01 0.01 0.01 0.01 0.01 0.00 0.00 0.00 0.00 0.00 0.00 0.00 0.00 0.00 0.00 0.00 0.00 0.00 0.01 0.01 0.01 0.01 0.01 0.01 0.01 0.01 0.01 0.01 0.01 0.01 0.02
0.01 0.01 0.01 0.02 0.02 0.02 0.05 0.03 0.02 0.02 0.02 0.02 0.01 0.01 0.01 0.01 0.01 0.00 0.00 0.00 0.00 0.00 0.00 0.00 0.00 0.00 0.00 0.00 0.00 0.00 0.00 0.01 0.01 0.01 0.01 0.00 0.00 0.01 0.01 0.01 0.01 0.01 0.01 0.02
0.01 0.01 0.02 0.02 0.03 0.03 0.05 0.03 0.02 0.02 0.03 0.04 0.01 0.00 0.01 0.01 0.01 0.01 0.00 0.00 0.00 0.00 0.00 0.00 0.00 0.00 0.00 0.00 0.00 0.00 0.00 0.01 0.01 0.00 0.00 0.00 0.00 0.01 0.01 0.01 0.01 0.01 0.01 0.02
0.02 0.01 0.01 0.01 0.02 0.02 0.03 0.04 0.05 0.05 0.05 0.03 0.01 0.00 0.01 0.01 0.01 0.00 0.00 0.00 0.00 0.00 0.00 0.00 0.00 0.00 0.00 0.00 0.00 0.00 0.00 0.00 0.00 0.00 0.00 0.00 0.00 0.00 0.01 0.00 0.01 0.01 0.01 0.02
0.03 0.05 0.01 0.00 0.01 0.01 0.01 0.04 0.08 0.10 0.09 0.04 0.01 0.00 0.00 0.00 0.00 0.00 0.00 0.00 0.00 0.00 0.00 0.00 0.00 0.00 0.00 0.00 0.00 0.00 0.00 0.00 0.00 0.00 0.01 0.00 0.00 0.00 0.01 0.00 0.01 0.01 0.01 0.01
0.04 0.03 0.01 0.00 0.00 0.00 0.01 0.01 0.02 0.04 0.05 0.04 0.02 0.00 0.00 0.00 0.00 0.00 0.00 0.00 0.00 0.00 0.00 0.00 0.00 0.00 0.00 0.00 0.00 0.00 0.00 0.00 0.00 0.00 0.00 0.00 0.00 0.00 0.00 0.00 0.01 0.01 0.01 0.01
0.02 0.02 0.00 0.00 0.00 0.00 0.00 0.01 0.01 0.01 0.03 0.03 0.02 0.00 0.00 0.00 0.00 0.00 0.00 0.00 0.00 0.00 0.00 0.00 0.00 0.00 0.00 0.00 0.00 0.00 0.00 0.00 0.00 0.00 0.00 0.00 0.00 0.00 0.00 0.01 0.01 0.01 0.00 0.01
0.01 0.02 0.01 0.00 0.00 0.00 0.00 0.00 0.01 0.00 0.01 0.02 0.03 0.01 0.00 0.00 0.00 0.00 0.00 0.00 0.00 0.00 0.00 0.00 0.00 0.00 0.00 0.00 0.00 0.00 0.00 0.00 0.00 0.00 0.00 0.00 0.00 0.00 0.00 0.01 0.01 0.01 0.01 0.01
0.00 0.01 0.02 0.01 0.00 0.00 0.00 0.00 0.00 0.01 0.01 0.01 0.01 0.01 0.00 0.00 0.00 0.00 0.00 0.00 0.00 0.00 0.00 0.00 0.00 0.00 0.00 0.00 0.00 0.00 0.00 0.00 0.00 0.00 0.00 0.00 0.00 0.00 0.00 0.00 0.00 0.01 0.01 0.01
0.00 0.02 0.05 0.04 0.01 0.00 0.00 0.00 0.00 0.00 0.00 0.00 0.01 0.01 0.00 0.00 0.00 0.00 0.00 0.00 0.00 0.00 0.00 0.00 0.00 0.00 0.00 0.00 0.00 0.00 0.00 0.00 0.00 0.00 0.00 0.00 0.00 0.00 0.00 0.00 0.00 0.01 0.01 0.01
0.00 0.01 0.03 0.05 0.03 0.00 0.00 0.00 0.00 0.00 0.00 0.00 0.00 0.00 0.00 0.00 0.00 0.00 0.00 0.00 0.00 0.00 0.00 0.00 0.00 0.00 0.00 0.00 0.00 0.00 0.00 0.00 0.00 0.00 0.00 0.00 0.00 0.00 0.00 0.00 0.00 0.00 0.00 0.01
0.00 0.01 0.00 0.01 0.01 0.00 0.00 0.00 0.00 0.00 0.00 0.00 0.00 0.00 0.00 0.00 0.00 0.00 0.00 0.00 0.00 0.00 0.00 0.00 0.00 0.00 0.00 0.00 0.00 0.00 0.00 0.00 0.00 0.00 0.00 0.00 0.00 0.00 0.00 0.00 0.00 0.00 0.00 0.01
0.00 0.00 0.00 0.00 0.00 0.00 0.00 0.00 0.00 0.00 0.00 0.00 0.00 0.00 0.00 0.00 0.00 0.00 0.00 0.00 0.00 0.00 0.00 0.00 0.00 0.00 0.00 0.00 0.00 0.00 0.00 0.00 0.00 0.00 0.00 0.00 0.00 0.00 0.00 0.00 0.00 0.00 0.01 0.01
0.00 0.01 0.01 0.01 0.00 0.00 0.00 0.00 0.00 0.00 0.00 0.00 0.00 0.00 0.00 0.00 0.00 0.00 0.00 0.00 0.00 0.00 0.00 0.00 0.00 0.00 0.00 0.00 0.00 0.00 0.00 0.00 0.00 0.00 0.00 0.00 0.00 0.00 0.00 0.00 0.00 0.00 0.00 0.00
0.00 0.01 0.01 0.00 0.01 0.01 0.00 0.00 0.00 0.00 0.00 0.00 0.00 0.00 0.00 0.00 0.00 0.00 0.00 0.00 0.00 0.00 0.00 0.00 0.00 0.00 0.00 0.00 0.00 0.00 0.00 0.00 0.00 0.00 0.00 0.00 0.00 0.00 0.00 0.00 0.00 0.00 0.00 0.01
0.00 0.00 0.01 0.01 0.02 0.00 0.00 0.00 0.00 0.00 0.00 0.00 0.00 0.00 0.00 0.00 0.00 0.00 0.00 0.00 0.00 0.00 0.00 0.00 0.00 0.00 0.00 0.00 0.00 0.00 0.00 0.00 0.00 0.00 0.00 0.00 0.00 0.00 0.00 0.00 0.00 0.00 0.00 0.00
0.00 0.00 0.01 0.01 0.01 0.01 0.00 0.00 0.00 0.00 0.00 0.00 0.00 0.00 0.00 0.00 0.00 0.00 0.00 0.00 0.00 0.00 0.00 0.00 0.00 0.00 0.00 0.00 0.00 0.00 0.00 0.00 0.00 0.00 0.00 0.00 0.00 0.00 0.00 0.00 0.00 0.00 0.00 0.00
0.00 0.00 0.01 0.01 0.01 0.01 0.00 0.00 0.00 0.00 0.00 0.00 0.00 0.00 0.00 0.00 0.00 0.00 0.00 0.00 0.00 0.00 0.00 0.00 0.00 0.00 0.00 0.00 0.00 0.00 0.00 0.00 0.00 0.00 0.00 0.00 0.00 0.00 0.00 0.00 0.00 0.00 0.00 0.00
0.00 0.01 0.01 0.02 0.01 0.00 0.00 0.00 0.00 0.00 0.00 0.00 0.00 0.00 0.00 0.00 0.00 0.00 0.00 0.00 0.00 0.00 0.00 0.00 0.00 0.00 0.00 0.00 0.00 0.00 0.00 0.00 0.00 0.00 0.00 0.00 0.00 0.00 0.00 0.00 0.00 0.00 0.00 0.00
0.00 0.00 0.00 0.00 0.00 0.00 0.00 0.00 0.00 0.00 0.00 0.00 0.00 0.00 0.00 0.00 0.00 0.00 0.00 0.00 0.00 0.00 0.00 0.00 0.00 0.00 0.00 0.00 0.00 0.00 0.00 0.00 0.00 0.00 0.00 0.00 0.00 0.00 0.00 0.00 0.00 0.00 0.00 0.00
0.00 0.00 0.00 0.00 0.00 0.00 0.00 0.00 0.00 0.00 0.00 0.00 0.00 0.00 0.00 0.00 0.00 0.00 0.00 0.00 0.00 0.00 0.00 0.00 0.00 0.00 0.00 0.00 0.00 0.00 0.00 0.00 0.00 0.00 0.00 0.00 0.00 0.00 0.00 0.00 0.00 0.00 0.00 0.00
0.00 0.00 0.00 0.00 0.00 0.00 0.00 0.00 0.00 0.00 0.00 0.00 0.00 0.00 0.00 0.00 0.00 0.00 0.00 0.00 0.00 0.00 0.00 0.00 0.00 0.00 0.00 0.00 0.00 0.00 0.00 0.00 0.00 0.00 0.00 0.00 0.00 0.00 0.00 0.00 0.00 0.00 0.00 0.00
0.00 0.00 0.00 0.00 0.00 0.00 0.00 0.00 0.00 0.00 0.00 0.00 0.00 0.00 0.00 0.00 0.00 0.00 0.00 0.00 0.00 0.00 0.00 0.00 0.00 0.00 0.00 0.00 0.00 0.00 0.00 0.00 0.00 0.00 0.00 0.00 0.00 0.00 0.00 0.00 0.00 0.00 0.00 0.00
MSLP
1007.95 1008.84 1009.62 1010.26 1010.75 1011.10 1011.33 1011.44 1011.45 1011.36 1011.16 1010.85 1010.44 1009.93 1009.38 1008.84 1008.34 1007.95 1007.70 1007.60 1007.63 1007.79 1008.03 1008.31 1008.61 1008.91 1009.21 1009.52 1009.86 1010.22 1010.62 1011.03 1011.44 1011.81 1012.12 1012.34 1012.45 1012.48 1012.43 1012.34 1012.24 1012.17 1012.14 1012.16
1008.48 1009.25 1009.90 1010.41 1010.79 1011.06 1011.25 1011.38 1011.42 1011.38 1011.22 1010.94 1010.53 1010.01 1009.42 1008.82 1008.29 1007.86 1007.60 1007.52 1007.60 1007.81 1008.10 1008.43 1008.76 1009.06 1009.34 1009.61 1009.90 1010.22 1010.59 1011.00 1011.42 1011.83 1012.17 1012.41 1012.55 1012.57 1012.49 1012.36 1012.22 1012.11 1012.06 1012.08
1008.82 1009.45 1009.94 1010.32 1010.60 1010.82 1011.00 1011.15 1011.26 1011.28 1011.20 1010.97 1010.59 1010.07 1009.47 1008.85 1008.29 1007.85 1007.60 1007.54 1007.66 1007.93 1008.28 1008.65 1008.99 1009.29 1009.54 1009.76 1009.99 1010.26 1010.58 1010.97 1011.39 1011.81 1012.18 1012.45 1012.60 1012.63 1012.54 1012.39 1012.22 1012.08 1012.00 1012.01
1008.97 1009.44 1009.79 1010.05 1010.26 1010.46 1010.66 1010.87 1011.06 1011.18 1011.19 1011.03 1010.69 1010.20 1009.59 1008.95 1008.37 1007.92 1007.67 1007.63 1007.79 1008.10 1008.49 1008.89 1009.25 1009.54 1009.76 1009.93 1010.10 1010.31 1010.58 1010.93 1011.34 1011.76 1012.14 1012.44 1012.62 1012.66 1012.59 1012.43 1012.25 1012.09 1011.99 1011.99
1008.97 1009.30 1009.53 1009.71 1009.88 1010.09 1010.34 1010.64 1010.94 1011.17 1011.27 1011.19 1010.90 1010.43 1009.81 1009.15 1008.53 1008.06 1007.79 1007.75 1007.92 1008.25 1008.68 1009.11 1009.48 1009.77 1009.96 1010.10 1010.21 1010.36 1010.57 1010.88 1011.25 1011.67 1012.06 1012.38 1012.59 1012.67 1012.62 1012.48 1012.30 1012.14 1012.04 1012.01
1008.94 1009.14 1009.27 1009.40 1009.56 1009.80 1010.14 1010.54 1010.95 1011.30 1011.50 1011.49 1011.24 1010.77 1010.13 1009.42 1008.75 1008.22 1007.91 1007.84 1008.00 1008.33 1008.77 1009.22 1009.62 1009.91 1010.10 1010.21 1010.28 1010.37 1010.54 1010.79 1011.13 1011.52 1011.92 1012.25 1012.50 1012.62 1012.61 1012.51 1012.36 1012.21 1012.10 1012.06
1008.96 1009.05 1009.12 1009.21 1009.38 1009.67 1010.09 1010.59 1011.11 1011.56 1011.85 1011.89 1011.67 1011.18 1010.51 1009.73 1008.98 1008.37 1007.99 1007.86 1007.98 1008.30 1008.74 1009.21 1009.62 1009.93 1010.13 1010.23 1010.28 1010.34 1010.46 1010.67 1010.96 1011.33 1011.71 1012.06 1012.33 1012.50 1012.54 1012.49 1012.39 1012.26 1012.16 1012.11
1009.09 1009.10 1009.11 1009.18 1009.37 1009.70 1010.18 1010.77 1011.37 1011.90 1012.24 1012.31 1012.09 1011.58 1010.85 1010.01 1009.17 1008.47 1007.99 1007.78 1007.85 1008.13 1008.56 1009.04 1009.48 1009.82 1010.04 1010.16 1010.21 1010.25 1010.33 1010.50 1010.76 1011.09 1011.45 1011.81 1012.10 1012.31 1012.41 1012.42 1012.36 1012.27 1012.19 1012.13
1009.34 1009.29 1009.26 1009.31 1009.50 1009.86 1010.37 1011.00 1011.64 1012.20 1012.56 1012.64 1012.41 1011.87 1011.09 1010.17 1009.25 1008.46 1007.90 1007.61 1007.61 1007.85 1008.25 1008.73 1009.19 1009.57 1009.83 1009.98 1010.05 1010.10 1010.17 1010.31 1010.53 1010.83 1011.17 1011.53 1011.84 1012.08 1012.23 1012.29 1012.29 1012.24 1012.18 1012.13
1009.66 1009.57 1009.51 1009.54 1009.72 1010.06 1010.57 1011.18 1011.82 1012.36 1012.71 1012.77 1012.52 1011.95 1011.13 1010.17 1009.20 1008.34 1007.70 1007.34 1007.27 1007.46 1007.84 1008.31 1008.79 1009.20 1009.51 1009.71 1009.82 1009.89 1009.97 1010.10 1010.31 1010.58 1010.91 1011.26 1011.58 1011.85 1012.04 1012.15 1012.19 1012.18 1012.15 1012.11
1009.99 1009.88 1009.81 1009.81 1009.95 1010.25 1010.71 1011.26 1011.83 1012.31 1012.61 1012.64 1012.36 1011.78 1010.95 1009.98 1008.99 1008.10 1007.42 1007.01 1006.88 1007.02 1007.37 1007.82 1008.31 1008.75 1009.10 1009.36 1009.53 1009.65 1009.76 1009.91 1010.12 1010.39 1010.71 1011.05 1011.37 1011.66 1011.88 1012.02 1012.10 1012.12 1012.11 1012.09
1010.25 1010.15 1010.07 1010.06 1010.16 1010.39 1010.75 1011.20 1011.67 1012.05 1012.27 1012.25 1011.94 1011.37 1010.57 1009.62 1008.66 1007.79 1007.10 1006.66 1006.50 1006.59 1006.89 1007.32 1007.79 1008.25 1008.65 1008.96 1009.19 1009.38 1009.55 1009.74 1009.97 1010.25 1010.58 1010.92 1011.25 1011.55 1011.79 1011.95 1012.05 1012.09 1012.10 1012.08
1010.41 1010.35 1010.28 1010.26 1010.31 1010.46 1010.71 1011.03 1011.36 1011.62 1011.74 1011.66 1011.34 1010.78 1010.03 1009.16 1008.26 1007.44 1006.78 1006.35 1006.16 1006.21 1006.45 1006.83 1007.28 1007.73 1008.15 1008.51 1008.81 1009.07 1009.32 1009.57 1009.85 1010.17 1010.52 1010.87 1011.21 1011.52 1011.76 1011.94 1012.05 1012.10 1012.11 1012.09
1010.46 1010.46 1010.44 1010.42 1010.43 1010.51 1010.64 1010.81 1010.99 1011.11 1011.12 1010.97 1010.64 1010.11 1009.43 1008.65 1007.86 1007.12 1006.52 1006.10 1005.89 1005.89 1006.08 1006.39 1006.79 1007.22 1007.64 1008.04 1008.40 1008.73 1009.06 1009.39 1009.74 1010.11 1010.49 1010.87 1011.22 1011.53 1011.78 1011.96 1012.07 1012.12 1012.13 1012.10
1010.45 1010.53 1010.56 1010.56 1010.56 1010.56 1010.58 1010.61 1010.63 1010.61 1010.50 1010.29 1009.93 1009.45 1008.85 1008.18 1007.50 1006.87 1006.33 1005.95 1005.73 1005.68 1005.79 1006.02 1006.34 1006.72 1007.12 1007.53 1007.94 1008.34 1008.75 1009.16 1009.59 1010.02 1010.45 1010.85 1011.22 1011.53 1011.78 1011.95 1012.06 1012.10 1012.10 1012.08
1010.43 1010.59 1010.68 1010.71 1010.69 1010.64 1010.56 1010.46 1010.33 1010.17 1009.96 1009.67 1009.31 1008.86 1008.35 1007.79 1007.22 1006.69 1006.24 1005.88 1005.65 1005.55 1005.57 1005.71 1005.94 1006.25 1006.61 1007.01 1007.44 1007.90 1008.37 1008.86 1009.36 1009.85 1010.33 1010.76 1011.15 1011.46 1011.71 1011.87 1011.97 1012.01 1012.00 1011.97
1010.46 1010.67 1010.81 1010.87 1010.84 1010.74 1010.57 1010.36 1010.10 1009.82 1009.51 1009.16 1008.79 1008.37 1007.93 1007.48 1007.03 1006.60 1006.21 1005.89 1005.64 1005.49 1005.43 1005.47 1005.60 1005.82 1006.12 1006.49 1006.92 1007.41 1007.93 1008.49 1009.04 1009.58 1010.09 1010.56 1010.95 1011.27 1011.51 1011.67 1011.76 1011.79 1011.78 1011.74
1010.55 1010.78 1010.93 1010.99 1010.95 1010.80 1010.56 1010.25 1009.90 1009.52 1009.13 1008.74 1008.36 1007.98 1007.61 1007.25 1006.90 1006.56 1006.24 1005.95 1005.69 1005.49 1005.35 1005.29 1005.32 1005.44 1005.67 1005.99 1006.41 1006.90 1007.45 1008.04 1008.63 1009.21 1009.74 1010.21 1010.61 1010.93 1011.17 1011.32 1011.41 1011.45 1011.44 1011.40
1010.69 1010.88 1011.00 1011.02 1010.94 1010.74 1010.44 1010.07 1009.64 1009.20 1008.76 1008.35 1007.97 1007.64 1007.34 1007.06 1006.80 1006.54 1006.28 1006.01 1005.75 1005.51 1005.30 1005.16 1005.09 1005.13 1005.28 1005.55 1005.93 1006.41 1006.96 1007.55 1008.16 1008.74 1009.29 1009.77 1010.16 1010.48 1010.71 1010.87 1010.96 1011.01 1011.01 1010.99
1010.83 1010.92 1010.95 1010.90 1010.76 1010.51 1010.16 1009.74 1009.28 1008.80 1008.35 1007.95 1007.60 1007.31 1007.08 1006.88 1006.70 1006.51 1006.30 1006.06 1005.80 1005.53 1005.28 1005.06 1004.92 1004.88 1004.96 1005.17 1005.50 1005.95 1006.48 1007.06 1007.66 1008.24 1008.78 1009.25 1009.65 1009.96 1010.20 1010.37 1010.48 1010.54 1010.57 1010.57
1010.92 1010.85 1010.75 1010.60 1010.37 1010.06 1009.68 1009.24 1008.77 1008.31 1007.88 1007.51 1007.21 1006.98 1006.81 1006.68 1006.57 1006.44 1006.28 1006.07 1005.82 1005.53 1005.24 1004.98 1004.78 1004.68 1004.69 1004.84 1005.13 1005.53 1006.03 1006.58 1007.16 1007.73 1008.26 1008.73 1009.12 1009.45 1009.70 1009.89 1010.03 1010.13 1010.19 1010.22
1010.91 1010.65 1010.40 1010.12 1009.81 1009.45 1009.05 1008.61 1008.17 1007.75 1007.37 1007.05 1006.82 1006.65 1006.55 1006.49 1006.43 1006.35 1006.22 1006.04 1005.79 1005.50 1005.18 1004.88 1004.64 1004.48 1004.44 1004.54 1004.77 1005.13 1005.58 1006.11 1006.66 1007.21 1007.73 1008.21 1008.62 1008.96 1009.25 1009.49 1009.67 1009.82 1009.93 1010.01
1010.80 1010.35 1009.94 1009.54 1009.15 1008.75 1008.34 1007.94 1007.55 1007.20 1006.89 1006.65 1006.49 1006.39 1006.34 1006.32 1006.30 1006.25 1006.14 1005.97 1005.71 1005.41 1005.07 1004.74 1004.45 1004.25 1004.16 1004.20 1004.38 1004.69 1005.10 1005.59 1006.12 1006.66 1007.19 1007.68 1008.13 1008.52 1008.86 1009.16 1009.42 1009.64 1009.81 1009.95
1010.60 1009.99 1009.45 1008.95 1008.50 1008.09 1007.71 1007.35 1007.04 1006.76 1006.54 1006.38 1006.29 1006.24 1006.24 1006.24 1006.23 1006.18 1006.06 1005.87 1005.60 1005.26 1004.89 1004.52 1004.19 1003.94 1003.79 1003.78 1003.90 1004.15 1004.52 1004.98 1005.49 1006.03 1006.58 1007.10 1007.61 1008.07 1008.50 1008.89 1009.24 1009.54 1009.80 1010.00
1010.34 1009.63 1009.00 1008.45 1007.99 1007.59 1007.25 1006.97 1006.73 1006.55 1006.41 1006.32 1006.28 1006.27 1006.27 1006.28 1006.25 1006.17 1006.01 1005.78 1005.46 1005.08 1004.65 1004.23 1003.84 1003.52 1003.31 1003.23 1003.29 1003.48 1003.80 1004.22 1004.72 1005.26 1005.84 1006.42 1006.99 1007.55 1008.08 1008.58 1009.04 1009.46 1009.81 1010.10
1010.06 1009.31 1008.67 1008.12 1007.68 1007.33 1007.06 1006.86 1006.71 1006.60 1006.53 1006.50 1006.49 1006.49 1006.48 1006.45 1006.38 1006.24 1006.02 1005.72 1005.33 1004.88 1004.38 1003.88 1003.41 1003.02 1002.73 1002.56 1002.54 1002.65 1002.91 1003.29 1003.77 1004.32 1004.93 1005.57 1006.23 1006.89 1007.53 1008.16 1008.75 1009.28 1009.75 1010.14
Thickness
5745 5734 5728 5736 5743 5743 5737 5734 5736 5745 5762 5758 5756 5762 5770 5780 5779 5778 5780 5783 5781 5779 5780 5779 5775 5771 5768 5763 5759 5753 5748 5744 5738 5732 5727 5722 5718 5715 5713 5710 5706 5702 5698 5694
5731 5727 5742 5751 5749 5742 5735 5732 5737 5747 5762 5759 5756 5761 5774 5779 5779 5781 5781 5782 5781 5778 5777 5773 5770 5768 5764 5759 5755 5752 5747 5742 5737 5731 5727 5722 5718 5714 5711 5708 5704 5700 5695 5691
5726 5737 5752 5748 5741 5736 5735 5735 5739 5741 5751 5758 5755 5754 5765 5776 5781 5782 5784 5784 5783 5778 5774 5770 5767 5764 5761 5757 5753 5750 5745 5741 5735 5731 5726 5721 5717 5712 5708 5704 5700 5698 5694 5689
5734 5746 5747 5742 5738 5738 5728 5748 5749 5746 5738 5734 5748 5733 5755 5767 5768 5773 5777 5779 5779 5778 5775 5769 5765 5761 5758 5756 5753 5749 5745 5740 5735 5731 5724 5718 5711 5706 5704 5701 5699 5696 5693 5688
5730 5741 5740 5736 5741 5746 5740 5753 5750 5748 5742 5739 5749 5741 5749 5764 5757 5766 5775 5778 5778 5776 5774 5768 5764 5761 5759 5756 5752 5748 5743 5739 5735 5730 5724 5718 5712 5708 5705 5702 5697 5694 5691 5688
5738 5751 5748 5744 5751 5752 5753 5750 5748 5749 5741 5723 5744 5741 5740 5758 5763 5767 5775 5777 5776 5774 5772 5768 5765 5760 5757 5754 5750 5746 5741 5736 5733 5729 5725 5719 5713 5708 5703 5699 5695 5692 5689 5686
5728 5740 5750 5754 5743 5747 5746 5729 5712 5710 5713 5721 5751 5746 5744 5765 5777 5776 5775 5775 5775 5773 5769 5764 5760 5755 5752 5749 5746 5743 5739 5734 5732 5728 5724 5720 5715 5710 5704 5699 5695 5691 5687 5684
5713 5717 5741 5750 5744 5739 5740 5732 5703 5688 5696 5717 5742 5741 5754 5775 5781 5782 5780 5776 5773 5769 5766 5762 5759 5754 5751 5748 5745 5742 5738 5733 5730 5727 5723 5720 5716 5710 5705 5701 5697 5692 5688 5684
5717 5719 5747 5756 5758 5752 5737 5732 5736 5718 5714 5711 5732 5752 5761 5774 5773 5774 5773 5770 5767 5766 5764 5761 5758 5755 5751 5748 5745 5742 5738 5733 5730 5727 5723 5719 5715 5711 5706 5702 5698 5693 5689 5686
5732 5720 5739 5752 5755 5755 5752 5746 5735 5724 5708 5705 5725 5739 5743 5755 5760 5766 5767 5765 5766 5767 5764 5762 5759 5755 5752 5749 5746 5743 5739 5734 5731 5728 5723 5720 5715 5711 5707 5702 5697 5693 5690 5686
5740 5725 5730 5740 5738 5740 5743 5741 5739 5736 5732 5710 5705 5724 5763 5763 5767 5767 5769 5769 5767 5766 5764 5761 5759 5756 5753 5750 5746 5742 5739 5735 5731 5727 5724 5719 5715 5711 5707 5702 5698 5694 5690 5686
5743 5730 5723 5735 5756 5761 5753 5747 5741 5723 5723 5729 5719 5729 5774 5774 5774 5772 5771 5771 5771 5768 5766 5763 5759 5755 5752 5749 5746 5742 5739 5735 5731 5727 5723 5719 5714 5710 5705 5701 5698 5695 5690 5687
5735 5724 5709 5716 5733 5747 5745 5748 5748 5743 5734 5726 5717 5729 5772 5773 5772 5773 5771 5769 5768 5767 5765 5762 5758 5754 5750 5748 5745 5743 5740 5735 5732 5727 5722 5718 5713 5709 5704 5701 5698 5695 5691 5688
5736 5724 5712 5702 5716 5734 5737 5743 5747 5740 5726 5724 5729 5738 5757 5763 5765 5767 5768 5768 5767 5765 5763 5760 5755 5753 5750 5748 5745 5743 5739 5736 5732 5727 5721 5716 5712 5708 5704 5701 5698 5695 5692 5688
5740 5726 5729 5734 5742 5744 5742 5742 5744 5740 5739 5730 5736 5742 5752 5762 5765 5768 5769 5768 5765 5763 5761 5758 5754 5752 5749 5748 5745 5742 5738 5735 5731 5725 5720 5715 5712 5708 5704 5700 5697 5694 5691 5688
5741 5729 5731 5732 5743 5745 5741 5745 5745 5744 5744 5743 5743 5744 5762 5768 5769 5767 5767 5765 5761 5760 5760 5759 5756 5753 5749 5747 5743 5740 5737 5735 5731 5725 5719 5715 5711 5707 5702 5699 5696 5693 5689 5687
5731 5727 5719 5718 5735 5736 5728 5745 5746 5745 5748 5745 5737 5746 5760 5759 5760 5761 5763 5762 5760 5759 5759 5758 5757 5754 5752 5749 5745 5739 5737 5734 5730 5724 5718 5714 5710 5705 5701 5699 5695 5691 5688 5686
5729 5723 5719 5717 5720 5704 5735 5763 5759 5750 5749 5753 5751 5754 5757 5757 5761 5765 5765 5761 5759 5759 5758 5758 5757 5756 5754 5752 5748 5743 5738 5733 5728 5722 5717 5713 5708 5704 5700 5696 5692 5690 5688 5684
5740 5725 5714 5711 5706 5716 5738 5754 5754 5744 5739 5750 5749 5751 5754 5759 5758 5756 5762 5762 5760 5759 5758 5758 5757 5756 5753 5751 5747 5742 5736 5731 5725 5720 5716 5711 5707 5702 5698 5694 5691 5689 5686 5683
5737 5730 5714 5707 5698 5699 5727 5750 5760 5747 5726 5745 5747 5744 5746 5746 5731 5737 5754 5756 5756 5756 5755 5754 5754 5752 5748 5747 5745 5738 5733 5727 5721 5718 5714 5710 5706 5701 5696 5693 5690 5688 5685 5682
5716 5713 5705 5700 5697 5712 5734 5747 5746 5715 5715 5737 5741 5739 5737 5733 5732 5741 5749 5749 5749 5749 5749 5749 5747 5744 5743 5742 5739 5733 5728 5724 5721 5717 5713 5708 5703 5699 5695 5691 5688 5686 5683 5680
5711 5705 5703 5701 5694 5702 5733 5734 5722 5719 5732 5732 5732 5732 5730 5730 5734 5737 5739 5739 5740 5740 5741 5740 5738 5737 5737 5737 5733 5727 5723 5722 5719 5714 5708 5704 5700 5697 5694 5688 5685 5682 5679 5676
5711 5711 5707 5705 5703 5720 5727 5724 5726 5728 5723 5723 5723 5724 5725 5723 5724 5727 5729 5731 5732 5733 5733 5733 5731 5729 5730 5730 5727 5721 5719 5719 5714 5708 5703 5700 5697 5693 5690 5685 5681 5678 5675 5672
5704 5713 5704 5702 5708 5715 5718 5719 5720 5720 5716 5716 5716 5716 5717 5715 5717 5718 5721 5723 5724 5725 5725 5725 5724 5722 5721 5722 5722 5720 5717 5715 5709 5703 5699 5696 5692 5688 5685 5681 5677 5673 5669 5666
5686 5690 5688 5688 5697 5701 5704 5706 5707 5707 5707 5707 5708 5708 5708 5708 5709 5710 5712 5715 5717 5717 5718 5718 5717 5716 5716 5716 5715 5715 5713 5710 5704 5700 5696 5692 5688 5684 5679 5673 5669 5666 5662 5660
5677 5676 5672 5674 5686 5685 5687 5695 5697 5694 5694 5695 5696 5698 5700 5701 5701 5703 5705 5708 5709 5710 5711 5710 5710 5710 5711 5711 5709 5709 5708 5705 5701 5696 5693 5689 5684 5680 5674 5667 5661 5658 5656 5654